Regional Weather Roundup
Issued by NWS

Home | Current Version | Previous Version | Text Only | Print | Product List | Glossary Off
Versions: 1 2 3 4 5 6 7 8 9 10 11 12 13 14 15 16 17 18 19 20 21 22 23 24 25 26 27 28 29 30 31 32 33 34 35 36 37 38 39 40 41 42 43 44 45 46 47 48 49 50

000
ASUS43 KMPX 212310
RWRMN
WEATHER ROUNDUP FOR MINNESOTA
NATIONAL WEATHER SERVICE TWIN CITIES/CHANHASSEN MN
500 PM CST SAT JAN 21 2017


NOTE: "FAIR" INDICATES FEW OR NO CLOUDS BELOW 12,000 FEET WITH NO
SIGNIFICANT WEATHER AND/OR OBSTRUCTIONS TO VISIBILITY. N/A MEANS
CURRENT SKY AND/OR WEATHER CONDITIONS ARE NOT AVAILABLE.

MNZ060>063-068>070-220000-
   Twin Cities Metro

CITY           SKY/WX    TMP DP  RH WIND       PRES   REMARKS
TWIN CITIES    DRIZZLE   38  35  89 CALM      29.45S FOG
ST PAUL        CLOUDY    36  36 100 CALM      29.46R FOG
CRYSTAL        FOG       37  34  89 CALM      29.45R VSB 1
BLAINE         FOG       37  37 100 CALM      29.45R VSB 1/4
LAKEVILLE      FOG       34  34 100 CALM      29.44S VSB 1/4
EDEN PRAIRIE   CLOUDY    38  35  89 CALM      29.43R FOG
SOUTH ST PAUL  CLOUDY    37  37  99 CALM      29.45S FOG
LAKE ELMO      FOG       36  36 100 CALM      29.46R VSB 1/4
$$
MNZ001>005-007-008-013>017-022>024-027-028-220000-
   Northwest Minnesota

CITY           SKY/WX    TMP DP  RH WIND       PRES   REMARKS
BEMIDJI        CLOUDY    33  33  99 E3        29.47R FOG
HALLOCK        CLOUDY    36  34  93 E6        29.49R
ROSEAU         CLOUDY    36  30  80 NE8       29.50R
WARROAD        CLOUDY    34  30  86 NE8       29.51R WCI  27
THIEF RVR FALL LGT RAIN  35  33  92 E6        29.49R WCI  30
CROOKSTON      MIX PCPN  36  34  93 E5        29.49R
FOSSTON        DRIZZLE   34  34 100 CALM      29.47R
DETROIT LAKES  CLOUDY    36  34  93 CALM      29.46R
MOORHEAD       CLOUDY    34  32  93 CALM      29.48R
PARK RAPIDS    CLOUDY    36  33  89 CALM      29.45R
MAHNOMEN       CLOUDY    35  34  95 NE7       29.45S WCI  29
$$
MNZ006-009>011-018-025>026-220000-
   North Central Minnesota

CITY           SKY/WX    TMP DP  RH WIND       PRES   REMARKS
BAUDETTE       CLOUDY    35  33  92 E5        29.50R WCI  31
FLAG ISLAND    CLOUDY    34  34 100 CALM      29.51R
INTL FALLS     CLOUDY    35  33  92 E3        29.51R
WASKISH        CLOUDY    36  36 100 E6        29.49R
BIG FORK       CLOUDY    37  34  87 NE3       29.48R
LONGVILLE      CLOUDY    36  36 100 CALM      29.47R
GRAND RAPIDS   CLOUDY    35  34  96 NE3       29.49R
CRANE LAKE     CLOUDY    34  34 100 CALM      29.53R
ORR            CLOUDY    36  32  87 CALM      29.47S
COOK           CLOUDY    36  34  93 CALM      29.49R
WALKER         FOG       33  33  99 CALM      29.47R VSB 1/4
$$
MNZ012-019>021-037-220000-
   Northeast Minnesota

CITY           SKY/WX    TMP DP  RH WIND       PRES   REMARKS
DULUTH         DRZL/FOG  34  34 100 E13       29.46S VSB 1   WCI  25
ELY            CLOUDY    36  34  93 CALM      29.49R
HIBBING        CLOUDY    34  34 100 NE3       29.47R
EVELETH        CLOUDY    37  37  97 E5        29.48R
DULUTH HARBOR  CLOUDY    34  34 100 NE9       29.49S FOG     WCI  26
TWO HARBORS    CLOUDY    37  34  87 NE6       29.47R
SILVER BAY     CLOUDY    36  36 100 NE8       29.47S
GRAND MARAIS     N/A     38  35  89 NE9       29.50S
G MARAIS ARPRT CLOUDY    34  28  80 NE9       29.48R WCI  26
$$
MNZ029>031-032-039>041-046>048-054>057-064-220000-
   West Central Minnesota

CITY           SKY/WX    TMP DP  RH WIND       PRES   REMARKS
FERGUS FALLS   CLOUDY    36  36 100 CALM      29.50R
WHEATON        CLOUDY    43  43 100 CALM      29.48R FOG
MORRIS         FOG       36  34  93 E3        29.44R VSB<1/4
ALEXANDRIA     FOG       34  34 100 E7        29.45R VSB 1/4 WCI  28
ELBOW LAKE     CLOUDY    34  34 100 E5        29.45R FOG     WCI  30
WADENA         CLOUDY    34  34 100 E5        29.45R FOG     WCI  30
GLENWOOD       FOG       34  34 100 E6        29.45R VSB<1/4 WCI  29
APPLETON       DRZL/FOG  36  34  93 CALM      29.45R VSB<1/4
BENSON         CLOUDY    37  34  87 SE6       29.46R
ORTONVILLE     FOG       34  32  93 CALM      29.44R VSB 1/4
MADISON        FOG       37  37 100 CALM      29.44R VSB<1/4
WILLMAR        RAIN      36  36 100 CALM      29.45R VSB 1/2
$$
MNZ033>034-036-042>043-049>051-058-059-220000-
   Central Minnesota

CITY           SKY/WX    TMP DP  RH WIND       PRES   REMARKS
ST CLOUD       FOG       35  35 100 CALM      29.46R VSB 1/4
SAUK CENTRE    FOG       33  33 100 CALM      29.45R VSB<1/4
PAYNESVILLE    FOG       35  35 100 E3        29.45R VSB<1/4
AITKIN         FOG       37  34  87 NE5       29.45S VSB 1
PINE RIVER     CLOUDY    36  36 100 NE3       29.51R FOG
BRAINERD       FOG       35  35 100 NE6       29.46R VSB 1/4 WCI  30
STAPLES        FOG       34  34 100 CALM      29.46R VSB 1
LONG PRAIRIE   SNOW      34  34 100 N3        29.45R VSB<1/4
LITTLE FALLS   FOG       34  34 100 CALM      29.46R VSB 3/4
LITCHFIELD     SNOW      36  36 100 NE3       29.45R VSB<1/4
BUFFALO        FOG       35  34  96 CALM      29.46R VSB<1/4
MAPLE LAKE     FOG       37  37 100 CALM      29.47R VSB<1/4
HUTCHINSON     DRZL/FOG  36  37 100 NE3       29.45R VSB 1/4
$$
MNZ037-044-045-052-053-220000-
   East Central Minnesota

CITY           SKY/WX    TMP DP  RH WIND       PRES   REMARKS
PRINCETON      FOG       37  36  93 CALM      29.47R VSB 1/4
MORA           CLOUDY    36  36 100 NE3       29.47R FOG
CAMBRIDGE      CLOUDY    37  37 100 CALM      29.44R FOG
RUSH CITY      FOG       36  34  93 CALM      29.46R VSB 1
MOOSE LAKE     CLOUDY    34  32  93 NE6       29.44S FOG     WCI  29
HINCKLEY       CLOUDY    36  36 100 N5        29.46R FOG
CLOQUET        CLOUDY    34  34 100 E9        29.46R FOG     WCI  26
MCGREGOR       CLOUDY    36  34  93 NE3       29.47R
$$
MNZ071>073-080-081-089-090-097-098-220000-
   Southwest Minnesota

CITY           SKY/WX    TMP DP  RH WIND       PRES   REMARKS
MONTEVIDEO     FOG       34  34 100 E3        29.45R VSB<1/4
GRANITE FALLS  FOG       37  36  99 NE3       29.45R VSB 1/4
CANBY          FOG       36  35  99 CALM      29.45R VSB<1/4
MARSHALL       FOG       36  36 100 CALM      29.44R VSB 1/2
REDWOOD FALLS  FOG       36  35  96 N3        29.43R VSB<1/4
OLIVIA         FOG       34  34 100 E3        29.44R VSB<1/4
PIPESTONE      CLOUDY    32  32 100 W9        29.43R FOG     WCI  24
WINDOM         CLOUDY    36  36 100 W9        29.43R FOG
WORTHINGTON    CLOUDY    31  31 100 W13       29.45R WCI  21
JACKSON        CLOUDY    32  32 100 W10       29.45R FOG     WCI  24
TRACY          CLOUDY    37  38 100 W7        29.44R
SLAYTON        CLOUDY    32  32 100 W10       29.43R FOG     WCI  24
$$
MNZ065>067-074>077-082>085-091>093-220000-
   South Central Minnesota

CITY           SKY/WX    TMP DP  RH WIND       PRES   REMARKS
MANKATO        FOG       36  35  96 CALM      29.45R VSB 1/4
NEW ULM        CLOUDY    37  37 100 CALM      29.43R FOG
ST JAMES       FOG       37  37 100 CALM      29.46R VSB 1/2
FAIRMONT       FOG       37  37 100 SW7       29.45R VSB 1/4
GLENCOE        FOG       37  37 100 CALM      29.44R VSB<1/4
OWATONNA       FOG       36  36 100 CALM      29.44R VSB 1/4
WASECA         FOG       36  36 100 CALM      29.45R VSB 1/4
ALBERT LEA     FOG       37  37 100 CALM      29.44R VSB<1/4
$$
MNZ078>079-086>088-094>096-220000-
   Southeast Minnesota

CITY           SKY/WX    TMP DP  RH WIND       PRES   REMARKS
ROCHESTER      FOG       34  34 100 S7        29.44S VSB 1/4 WCI  28
RED WING       FOG       37  36  93 CALM      29.45R VSB 1/4
STANTON        FOG       35  34  94 N3        29.43S VSB<1/4
DODGE CENTER   FOG       34  34 100 CALM      29.44R VSB<1/4
WINONA         CLOUDY    37  37 100 S3        29.46S FOG
AUSTIN         FOG       36  34  93 S5        29.45R VSB 1/4
PRESTON        FOG       35  35  97 SW6       29.45R VSB<1/4 WCI  30
$$
ABBREVIATIONS USED IN REMARKS
   TC - TEMPERATURES IN CELSIUS
  WCI - WIND CHILL INDEX
   HX - HEAT INDEX
  VSB - VISIBILITY
$$



USA.gov is the U.S. government's official web portal to all federal, state and local government web resources and services.